星链-34990 (STARLINK-34990)

导读

STARLINK-34990是美国于2025年8月18日发射的星链卫星,星链是SpaceX打造的全球卫星互联网项目。这类低轨卫星旨在为全球偏远地区、海洋、空域等信号难覆盖区域,提供高速低延迟的宽带网络服务,进一步补全星链星座的全球网络覆盖能力。

基本信息
目录编号:
65244
目录名称:
STARLINK-34990
国际标识:
2025-179K
轨道中心:
EARTH
卫星名称:
星链-34990
卫星全名:
星链-34990 (STARLINK-34990)
卫星状态:
在轨 (已飞行299 天)
发射日期:
2025-08-18 UTC
国别 :
美国 (US)
星等 :
--
轨道信息
数据来源 国际轨道数据 AOE轨道数据
星历时间 2026-06-13T10:03:40+0800
13小时前
查看轨道信息
2026-06-07T06:00:00+0800
6天前
查看轨道信息
半长轴 6927.64km 6927.649km
偏心率 0.0001637 0.0002237
轨道倾角 97.367° 97.396°
近地点辐角 128.262° 120.406°
升交点赤经 206.160° 200.262°
平近点角 231.875° 301.581°
近地点 548.368km 547.962km
远地点 550.638km 551.062km
周期 95.640分钟 95.640分钟
每日圈数 15.056527 15.0565
详细信息
固有亮度:
5
最大亮度:
2.5
卫星平台:
Starlink V1.0
覆盖范围:
全球
运营商:
太空探索技术公司
运营商所在国:
美国
制造商(研发单位):
太空探索技术公司
制造商所在国:
美国
使用方式:
暂无
卫星简介
Starlink 计划是 SpaceX 推出的全球卫星互联网项目,通过发射低轨道卫星,为全球尤其是偏远地区提供高速、低延迟的互联网服务。自 2019 年起,Starlink 已部署数千颗卫星,旨在缩小全球数字鸿沟,推动互联网普及。该项目还为军事、航空等行业提供通信支持,带来广泛经济效益。
2D轨道图
3D轨道图
轨道高度分析图
轨道倾角分析图
轨道综合分析图
查看轨道综合分析图